When you browse on this site, cookies collect data to enhance your experience and personalize the content and advertising you see.
Visit our Privacy Policy to learn more. By continuing to use the site, you agree to this use of cookies and data.
  • In Hungary
  • List of Countries
  • For 7 days
  • Water Temperature
  • Satellite Maps
  • Weather Map
  • News
  • Weather Widgets
  • user-avatar
    Login

    Hourly Weather Kirovskiy

    Today, 12 December, Wednesday

    Time Temperature Precipitation Wind Pressure Humidity
    00:00 +5°C° 0 mm 6 mps 761 mmHg 79%
    01:00 +5°C° 0 mm 6 mps 761 mmHg 79%
    02:00 +5°C° 0 mm 6 mps 761 mmHg 79%
    03:00 +5°C° 0 mm 7 mps 761 mmHg 80%
    04:00 +5°C° 0 mm 5 mps 761 mmHg 82%
    05:00 +5°C° 0 mm 4 mps 761 mmHg 84%
    06:00 +5°C° 0 mm 3 mps 761 mmHg 86%
    07:00 +6°C° 0 mm 2 mps 761 mmHg 86%
    08:00 +6°C° 0 mm 2 mps 761 mmHg 86%
    09:00 +6°C° 0 mm 2 mps 762 mmHg 85%
    10:00 +6°C° 0 mm 2 mps 761 mmHg 83%
    11:00 +7°C° 0 mm 3 mps 761 mmHg 80%
    12:00 +7°C° 0 mm 3 mps 761 mmHg 77%
    13:00 +7°C° 0 mm 3 mps 761 mmHg 77%
    14:00 +7°C° 0 mm 3 mps 761 mmHg 77%
    15:00 +7°C° 0 mm 3 mps 761 mmHg 77%
    16:00 +5°C° 0 mm 3 mps 761 mmHg 79%
    17:00 +5°C° 0 mm 3 mps 761 mmHg 82%
    18:00 +4°C° 0 mm 4 mps 761 mmHg 84%
    19:00 +4°C° 0 mm 3 mps 761 mmHg 84%
    20:00 +3°C° 0 mm 3 mps 761 mmHg 85%
    21:00 +3°C° 0 mm 3 mps 761 mmHg 85%
    22:00 +3°C° 0 mm 4 mps 761 mmHg 84%
    23:00 +3°C° 0 mm 4 mps 761 mmHg 84%

    Tomorrow, 13 December, Thursday

    Time Temperature Precipitation Wind Pressure Humidity
    00:00 +3°C° 0 mm 4 mps 761 mmHg 83%
    01:00 +3°C° 0 mm 4 mps 761 mmHg 84%
    02:00 +3°C° 0 mm 4 mps 761 mmHg 84%
    03:00 +1°C° 0 mm 4 mps 761 mmHg 84%
    04:00 +1°C° 0 mm 4 mps 761 mmHg 85%
    05:00 +1°C° 0 mm 4 mps 761 mmHg 85%
    06:00 +1°C° 0 mm 5 mps 761 mmHg 85%
    07:00 +1°C° 0.1 mm 5 mps 761 mmHg 85%
    08:00 +1°C° 0.1 mm 4 mps 761 mmHg 84%
    09:00 +1°C° 0.1 mm 4 mps 761 mmHg 83%
    10:00 +1°C° 0.3 mm 5 mps 761 mmHg 82%
    11:00 +2°C° 0.3 mm 5 mps 761 mmHg 81%
    12:00 +2°C° 0.3 mm 5 mps 761 mmHg 79%
    13:00 +2°C° 0.4 mm 6 mps 762 mmHg 80%
    14:00 +2°C° 0.4 mm 6 mps 762 mmHg 80%
    15:00 +2°C° 0.4 mm 6 mps 762 mmHg 81%
    16:00 +2°C° 0.3 mm 7 mps 763 mmHg 82%
    17:00 0°C° 0.3 mm 7 mps 763 mmHg 84%
    18:00 0°C° 0.3 mm 7 mps 764 mmHg 85%
    19:00 0°C° 0.2 mm 8 mps 764 mmHg 84%
    20:00 0°C° 0.2 mm 8 mps 764 mmHg 84%
    21:00 0°C° 0.2 mm 9 mps 764 mmHg 83%
    22:00 0°C° 0 mm 9 mps 765 mmHg 83%
    23:00 0°C° 0 mm 8 mps 765 mmHg 83%

    Day after tomorrow, 14 December, Friday

    Time Temperature Precipitation Wind Pressure Humidity
    00:00 0°C° 0 mm 8 mps 766 mmHg 83%
    01:00 0°C° 0 mm 8 mps 766 mmHg 83%
    02:00 0°C° 0 mm 9 mps 767 mmHg 82%
    03:00 0°C° 0 mm 9 mps 767 mmHg 82%
    04:00 0°C° 0 mm 9 mps 767 mmHg 83%
    05:00 0°C° 0 mm 8 mps 767 mmHg 83%
    06:00 0°C° 0 mm 8 mps 768 mmHg 83%
    07:00 0°C° 0 mm 8 mps 768 mmHg 83%
    08:00 0°C° 0 mm 8 mps 768 mmHg 82%
    09:00 0°C° 0 mm 8 mps 769 mmHg 82%
    10:00 0°C° 0 mm 8 mps 769 mmHg 78%
    11:00 +1°C° 0 mm 8 mps 769 mmHg 73%
    12:00 +1°C° 0 mm 8 mps 769 mmHg 69%
    13:00 +1°C° 0 mm 8 mps 769 mmHg 66%
    14:00 +2°C° 0 mm 7 mps 769 mmHg 63%
    15:00 +3°C° 0 mm 7 mps 769 mmHg 60%
    16:00 +2°C° 0 mm 7 mps 769 mmHg 62%
    17:00 +1°C° 0 mm 6 mps 770 mmHg 65%
    18:00 +1°C° 0 mm 6 mps 770 mmHg 68%
    19:00 +1°C° 0 mm 6 mps 770 mmHg 69%
    20:00 -1°C° 0 mm 6 mps 770 mmHg 71%
    21:00 -1°C° 0 mm 6 mps 770 mmHg 72%
    22:00 -1°C° 0 mm 6 mps 770 mmHg 74%
    23:00 -1°C° 0 mm 6 mps 770 mmHg 75%

    15 December, Saturday

    Time Temperature Precipitation Wind Pressure Humidity
    00:00 -1°C° 0 mm 6 mps 770 mmHg 77%
    01:00 -1°C° 0 mm 7 mps 770 mmHg 79%
    02:00 -1°C° 0 mm 7 mps 770 mmHg 81%
    03:00 -1°C° 0 mm 7 mps 770 mmHg 83%
    04:00 -1°C° 0 mm 7 mps 771 mmHg 83%
    05:00 -1°C° 0 mm 7 mps 771 mmHg 83%
    06:00 -1°C° 0 mm 7 mps 771 mmHg 83%
    07:00 -1°C° 0 mm 7 mps 771 mmHg 80%
    08:00 -1°C° 0 mm 7 mps 771 mmHg 78%
    09:00 -1°C° 0 mm 8 mps 772 mmHg 76%
    10:00 0°C° 0 mm 8 mps 772 mmHg 70%
    11:00 +1°C° 0 mm 8 mps 772 mmHg 65%
    12:00 +2°C° 0 mm 8 mps 772 mmHg 59%
    13:00 +3°C° 0 mm 7 mps 772 mmHg 59%
    14:00 +3°C° 0 mm 7 mps 772 mmHg 60%
    15:00 +3°C° 0 mm 7 mps 772 mmHg 60%
    16:00 +2°C° 0 mm 6 mps 772 mmHg 64%
    17:00 +1°C° 0 mm 5 mps 773 mmHg 69%
    18:00 0°C° 0 mm 5 mps 773 mmHg 73%
    19:00 0°C° 0 mm 5 mps 773 mmHg 75%
    20:00 -1°C° 0 mm 5 mps 773 mmHg 77%
    21:00 -1°C° 0 mm 4 mps 774 mmHg 79%
    22:00 -1°C° 0 mm 4 mps 774 mmHg 81%
    23:00 -2°C° 0 mm 4 mps 774 mmHg 83%

    16 December, Sunday

    Time Temperature Precipitation Wind Pressure Humidity
    00:00 -2°C° 0 mm 4 mps 774 mmHg 85%
    01:00 -2°C° 0 mm 4 mps 774 mmHg 86%
    02:00 -2°C° 0 mm 4 mps 774 mmHg 87%
    03:00 -3°C° 0 mm 4 mps 775 mmHg 88%
    04:00 -2°C° 0 mm 3 mps 775 mmHg 88%
    05:00 -2°C° 0 mm 3 mps 775 mmHg 89%
    06:00 -2°C° 0 mm 3 mps 775 mmHg 90%
    07:00 -2°C° 0 mm 3 mps 776 mmHg 88%
    08:00 -2°C° 0 mm 3 mps 776 mmHg 85%
    09:00 -2°C° 0 mm 3 mps 776 mmHg 83%
    10:00 -1°C° 0 mm 2 mps 776 mmHg 79%
    11:00 -1°C° 0 mm 2 mps 776 mmHg 74%
    12:00 +1°C° 0 mm 2 mps 776 mmHg 70%
    13:00 +1°C° 0 mm 2 mps 776 mmHg 70%
    14:00 +1°C° 0 mm 2 mps 776 mmHg 70%
    15:00 +1°C° 0 mm 2 mps 776 mmHg 70%
    16:00 -1°C° 0 mm 2 mps 776 mmHg 72%
    17:00 -1°C° 0 mm 2 mps 776 mmHg 74%
    18:00 -1°C° 0 mm 3 mps 776 mmHg 76%
    19:00 -2°C° 0 mm 3 mps 776 mmHg 76%
    20:00 -2°C° 0 mm 3 mps 776 mmHg 77%
    21:00 -2°C° 0 mm 3 mps 776 mmHg 77%
    22:00 -2°C° 0 mm 3 mps 776 mmHg 77%
    23:00 -2°C° 0 mm 3 mps 776 mmHg 77%

    17 December, Monday

    Time Temperature Precipitation Wind Pressure Humidity
    00:00 -2°C° 0 mm 3 mps 776 mmHg 78%
    01:00 -2°C° 0 mm 3 mps 776 mmHg 78%
    02:00 -2°C° 0 mm 3 mps 776 mmHg 78%
    03:00 -2°C° 0 mm 3 mps 776 mmHg 78%
    04:00 -2°C° 0 mm 3 mps 776 mmHg 78%
    05:00 -2°C° 0 mm 3 mps 776 mmHg 78%
    06:00 -3°C° 0 mm 4 mps 776 mmHg 78%
    07:00 -3°C° 0 mm 4 mps 776 mmHg 78%
    08:00 -2°C° 0 mm 3 mps 776 mmHg 78%
    09:00 -2°C° 0 mm 3 mps 776 mmHg 77%
    10:00 -2°C° 0 mm 3 mps 776 mmHg 75%
    11:00 -1°C° 0 mm 3 mps 776 mmHg 72%
    12:00 -1°C° 0 mm 3 mps 775 mmHg 70%
    13:00 -2°C° 0 mm 4 mps 775 mmHg 70%
    14:00 -2°C° 0 mm 4 mps 775 mmHg 71%
    15:00 -2°C° 0 mm 4 mps 775 mmHg 71%
    16:00 -3°C° 0 mm 4 mps 775 mmHg 74%
    17:00 -3°C° 0 mm 4 mps 775 mmHg 77%
    18:00 -4°C° 0 mm 4 mps 775 mmHg 80%
    19:00 -4°C° 0 mm 4 mps 775 mmHg 81%
    20:00 -4°C° 0 mm 3 mps 776 mmHg 81%
    21:00 -4°C° 0 mm 3 mps 776 mmHg 82%
    22:00 -4°C° 0 mm 3 mps 776 mmHg 82%
    23:00 -5°C° 0 mm 3 mps 775 mmHg 82%
    Show more